Location: Little Bennett Regional Park
(39.2840°N, 77.2890°W)
Time: 22:10:46
(UTC-04:00)

Daily predictions for brighter satellites

Satellite Brightness Start Highest point End
(mag) Time Altitude Azimuth Time Altitude Azimuth Time Altitude Azimuth
H-2A R/B 4.0 19:42:12 10° SSW 19:46:14 28° SE 20:01:06 10° E
Cosmos 2058 Rocket 4.1 19:51:33 10° SSW 19:55:56 54° W 20:00:22 10° N
Cosmos 1844 Rocket 2.7 19:52:11 10° SSW 19:57:50 79° ESE 20:03:29 10° NNE
Cosmos 192 4.3 19:54:16 10° NNW 19:59:14 79° ENE 20:04:08 10° SSE
Spot 2 Rocket 4.0 19:54:34 10° SE 19:59:18 40° ENE 20:04:04 10° N
USA 215 3.9 19:53:57 10° ENE 19:59:46 33° SE 20:05:31 10° S
Cosmos 2150 Rocket 4.0 19:55:20 10° S 20:00:24 62° ESE 20:05:29 10° NNE
FengYun 1-2 T 4.3 20:01:25 10° SSE 20:06:55 67° ENE 20:12:30 10° N
Cosmos 2278 Rocket 2.7 20:01:56 10° S 20:07:07 38° ESE 20:12:20 10° NE
Cosmos 1833 Rocket 4.5 20:05:20 10° NNE 20:08:10 14° NE 20:10:56 10° ENE
Cosmos 1934 Rocket 4.0 20:05:17 10° S 20:11:18 59° E 20:17:15 10° NNE
Cosmos 1898 Rocket 3.8 20:08:07 10° SSW 20:13:26 77° WNW 20:18:45 10° NNE
Cosmos 1378 3.1 20:09:43 10° N 20:13:29 66° E 20:17:12 10° SSE
Cosmos 990 Rocket 4.0 20:09:22 10° S 20:14:31 63° ESE 20:19:43 10° NNE
Tiangong 1 1.2 20:12:32 10° WNW 20:15:25 54° NNE 20:17:21 18° E
Cosmos 1953 3.7 20:13:17 10° SE 20:16:13 19° E 20:19:09 10° NE
Envisat 4.2 20:14:18 13° ESE 20:17:21 22° ENE 20:21:12 10° NNE
FENGYUN 3A 3.7 20:12:32 10° SSE 20:17:57 89° E 20:23:23 10° NNW
Okean 3 Rocket 4.4 20:14:27 10° NNE 20:18:22 30° ENE 20:22:01 11° SE
H-2A R/B 2.7 20:18:04 10° SSE 20:21:55 69° ENE 20:25:49 10° N
Cosmos 1125 Rocket 4.5 20:18:06 10° SSE 20:22:10 24° E 20:26:15 10° NE
Meteor 1-24 Rocket 3.6 20:17:33 10° N 20:23:02 72° E 20:28:40 10° SSE
USA 186 2.4 20:24:57 21° ENE 20:24:57 21° ENE 20:26:26 10° NNE
Cosmos 1707 4.0 20:24:27 10° NNW 20:28:11 45° W 20:31:53 10° SSW
Meteor 2-5 Rocket 4.4 20:23:40 10° NNW 20:29:17 59° W 20:34:58 10° S
Cosmos 1821 Rocket 4.3 20:24:43 10° SSW 20:31:06 76° W 20:37:30 10° N
Geosat 3.9 20:27:57 10° NNE 20:33:00 78° ESE 20:38:00 10° SSW
ALOS 3.1 20:32:16 10° S 20:36:49 53° W 20:41:24 10° NNW
Cosmos 2082 Rocket 3.3 20:33:08 10° N 20:37:49 25° NE 20:39:45 21° E
GP-B 3.8 20:37:25 22° SE 20:39:26 33° E 20:43:24 10° NNE
CZ-3B DEB 3.2 20:27:24 10° SW 20:39:32 73° NW 20:44:54 10° NE
Cosmos 1812 Rocket 4.2 20:35:59 10° SSW 20:40:21 60° W 20:44:43 10° N
Resurs 01 Rocket 1.8 20:36:00 10° S 20:40:23 74° WSW 20:44:50 10° NNW
Meteor 1-4 Rocket 3.1 20:40:40 32° E 20:40:40 32° E 20:43:41 10° NNE
Cosmos 1766 3.4 20:37:35 10° SSW 20:41:27 74° W 20:45:20 10° N
CZ-4B DEB 3.6 20:41:44 30° ENE 20:41:44 30° ENE 20:44:15 10° N
Cosmos 1544 3.2 20:38:47 10° S 20:42:17 49° E 20:45:50 10° NNE
Cosmos 1818 4.4 20:38:18 10° NNW 20:43:14 34° NE 20:45:20 25° E
RESURS DK-1 2.2 20:39:36 10° NNW 20:43:45 73° ENE 20:46:08 24° SE
ERS-1 Rocket 4.2 20:43:31 21° ENE 20:44:08 22° ENE 20:47:53 10° NNE
COSMOS 2406 4.4 20:39:33 10° NW 20:44:58 43° WSW 20:50:19 10° S
Cosmos 1937 Rocket 4.3 20:41:21 10° SW 20:46:27 53° WNW 20:51:39 10° N
BREEZE-M DEB (TANK) 3.4 20:44:31 10° SSW 20:47:33 40° SE 20:55:55 10° ENE
SL-27 R/B 2.5 20:44:35 10° NNW 20:48:09 82° WSW 20:50:28 21° SSE
Cosmos 1605 Rocket 3.9 20:42:45 10° S 20:48:59 82° E 20:55:21 10° N
Timation 1 Rocket 4.5 20:43:25 10° S 20:49:09 50° ESE 20:54:57 10° NE
Meteor 1-29 3.0 20:48:06 10° NNE 20:51:30 50° E 20:52:30 37° SSE
COSMOS 2487 4.4 20:49:11 10° NNE 20:50:46 17° NE 20:50:46 17° NE
Lacrosse 5 1.9 20:47:12 10° SW 20:52:16 81° NW 20:57:22 10° NE
SeaSat 1 4.2 20:52:41 10° S 20:56:59 30° WSW 21:01:20 10° NW
Cosmos 1766 Rocket 4.1 20:53:31 10° N 20:57:42 38° ENE 20:57:56 38° E
Cosmos 1076 Rocket 3.5 20:54:41 10° N 20:58:52 54° E 20:59:47 44° SE
Delta 2 Rocket 4.0 20:54:52 10° W 20:59:12 42° SSW 21:00:11 36° SSE
Cosmos 2098 Rocket 4.3 20:53:20 10° S 21:00:11 69° E 21:07:45 10° NNE
OE (NEXTSAT) 4.4 20:58:08 10° WSW 21:01:44 82° NNW 21:02:26 55° NE
Meteor 1-21 Rocket 4.3 20:57:08 10° N 21:02:52 59° ENE 21:05:51 29° SSE
Cosmos 2123 Rocket 4.3 20:56:38 10° NNW 21:02:55 68° W 21:09:08 10° S
Spot 1 4.2 21:00:12 18° SSE 21:03:36 85° WSW 21:08:26 10° NNW
Cosmos 1802 Rocket 4.5 21:05:09 34° E 21:05:38 35° E 21:11:07 10° NNE
Cosmos 468 4.4 21:03:19 10° NNW 21:08:34 69° ENE 21:10:22 40° SE
Cosmos 2344 4.2 21:05:08 10° SW 21:12:41 59° NW 21:21:13 10° NNE
Cosmos 2061 Rocket 4.3 21:11:25 35° SE 21:13:29 46° E 21:19:34 10° NNE
Helios 1B rocket 2.9 21:11:54 10° N 21:16:00 61° WNW 21:20:02 10° SSW
Helios 1A 3.4 21:14:06 23° S 21:16:31 59° WSW 21:20:39 10° NNW
Cosmos 1867 3.5 21:11:51 10° SSW 21:17:11 59° ESE 21:22:34 10° NE
Cosmos 1805 4.0 21:14:26 10° SSW 21:18:13 52° W 21:22:03 10° N
Timation 2 Rocket 4.3 21:12:40 10° NNW 21:18:45 45° ENE 21:19:44 42° E
Cosmos 1674 3.5 21:16:00 10° N 21:18:33 39° NNE 21:18:33 39° NNE
Cosmos-2242 4.0 21:22:00 34° NNE 21:22:00 34° NNE 21:24:35 10° NNE
Lacrosse 4 Rocket 4.5 21:25:09 10° W 21:27:13 14° NW 21:29:19 10° NNW
Cosmos 1340 Rocket 4.4 21:25:15 10° N 21:27:12 25° NNE 21:27:12 25° NNE
Cosmos 372 Rocket 3.8 21:28:45 10° SSW 21:33:50 84° ESE 21:39:00 10° NNE
USA 215 3.5 21:36:31 10° NE 21:42:59 66° NW 21:49:26 10° WSW
H-2A R/B 4.0 21:45:55 18° NNE 21:45:55 18° NNE 21:47:51 10° NNE
Cosmos 1459 Rocket 3.9 21:45:23 33° S 21:48:25 86° W 21:54:40 10° N
Cosmos 1939 Rocket 3.9 21:49:27 46° W 21:49:27 46° W 21:53:04 10° NNW
Cosmos 158 Rocket 4.0 21:44:19 10° NNW 21:49:00 75° NNW 21:49:00 75° NNW
Cosmos 2173 Rocket 3.9 21:48:08 41° S 21:50:28 85° W 21:56:45 10° N
Tiangong 1 4.4 21:48:34 10° W 21:48:47 11° W 21:48:47 11° W
Cosmos 2278 Rocket 4.0 21:46:19 10° WSW 21:51:15 30° WNW 21:56:12 10° N
Cosmos 1953 4.4 21:48:57 10° SW 21:52:26 27° WNW 21:55:58 10° NNW
Cosmos 1833 Rocket 2.6 21:47:16 10° NNW 21:52:40 82° N 21:52:40 82° N
CZ-3 Stage 3 3.5 21:26:54 10° W 21:53:15 52° SSW 21:54:42 47° SSE
Cosmos 1408 Rocket 4.4 21:49:08 10° NNW 21:53:15 49° W 21:53:15 49° W
Envisat 4.0 21:54:30 33° SW 21:56:04 42° W 22:00:54 10° NNW
Cosmos 2297 4.5 21:57:46 10° SW 22:03:18 50° WNW 22:08:54 10° NNE
USA 267 3.5 22:14:41 54° NNE 22:14:41 54° NNE 22:20:49 10° NW
Lacrosse 5 rocket 4.0 22:14:28 10° NNW 22:15:09 14° NNW 22:15:09 14° NNW
Cosmos 2016 Rocket 4.2 22:22:04 65° WNW 22:22:04 65° WNW 22:27:49 10° N
Cosmos 2082 Rocket 3.0 22:16:41 10° NW 22:21:38 45° W 22:21:38 45° W
ERS-1 Rocket 4.2 22:23:31 39° WNW 22:23:31 39° WNW 22:27:23 10° NNW
Lacrosse 5 4.2 22:32:17 10° WNW 22:35:57 20° NNW 22:37:28 17° N
CZ-3B DEB 4.4 22:48:30 10° WNW 22:52:24 16° NNW 22:53:28 15° NNW
